User: anonymous   Login
Location: Enid
(36.3960°N, 97.8780°W)
Time: 12:43:56
(UTC-05:00)
Language:

Hubble Space Telescope - Orbit

View from above orbital plane
View from above orbital plane
View from above satellite
View from above satellite

Ground track
Ground track

The orbit data is extracted from the following two-line orbital elements,

1 20580U 90037B   17144.27417696 +.00000491 +00000-0 +19254-4 0  9992
2 20580 028.4687 165.5315 0002470 276.5092 192.1348 15.08766927286580
Epoch (UTC): 24 May 2017 06:34:48
Eccentricity: 0.0002470
inclination: 28.4687°
perigee height: 538 km
apogee height: 541 km
right ascension of ascending node: 165.5315°
argument of perigee: 276.5092°
revolutions per day: 15.08766927
mean anomaly at epoch: 192.1348°
orbit number at epoch: 28658

The dashed part of the orbit path shows where the satellite is in the earth's shadow,  

DLR